Weather History for Garrison, ND

Change the Weather History Date:

Sunday, June 16, 2013

  Actual Average Record
Temperature  
Mean Temperature 63 °F -  
Max Temperature 75 °F 69 °F 80 °F (2002)
Min Temperature 51 °F 48 °F 38 °F (2008)
Degree Days  
Heating Degree Days 2    
Growing Degree Days 13 (Base 50)    
Moisture  
Dew Point 49 °F    
Average Humidity 62    
Maximum Humidity 83    
Minimum Humidity 41    
Precipitation  
Precipitation 0.00 in - - ()
Month to date precipitation 2.77  
Year to date precipitation 13.45  
Sea Level Pressure  
Sea Level Pressure 29.91 in    
Wind  
Wind Speed 15 mph (WNW)    
Max Wind Speed 31 mph    
Max Gust Speed 39 mph    
Averages and records for this station are not official NWS values.
T = Trace of Precipitation, MM = Missing Value Source: NWS Daily Summary

Daily Weather History Graph

Daily Weather History Graph

Search for Another Location

Airport:

Trip Planner

Search our weather history database for the weather conditions in past years. The results will help you decide how hot, cold, wet, or windy it might be!

Date:

Astronomy

Jun. 16, 2013 Rise Set
Actual Time 5:47 AM CDT 9:46 PM CDT
Civil Twilight 5:06 AM CDT 10:26 PM CDT
Nautical Twilight 4:10 AM CDT 11:23 PM CDT
Astronomical Twilight 2:39 AM CDT 12:54 AM CDT
Moon 1:56 PM CDT (6/16) 1:22 AM CDT (6/16)
Length of Visible Light 17h 20m
Length of Day
15h 58m
Waxing Crescent, 50% of the Moon is Illuminated
Jun 16
Waxing Crescent
Jun 16
First Quarter
Jun 23
Full
Jun 29
Last Quarter
Jul 8
New

Hourly Weather History & Observations

Time (CDT) Temp. Dew Point Humidity Pressure Visibility Wind Dir Wind Speed Gust Speed Precip Events Conditions
12:52 AM 55.0 °F 48.9 °F 80% 29.88 in - WSW 6.9 mph - N/A   Unknown
1:52 AM 54.0 °F 48.0 °F 80% 29.88 in - WSW 8.1 mph - N/A   Unknown
2:52 AM 55.0 °F 48.0 °F 77% 29.88 in - WSW 8.1 mph - N/A   Unknown
3:52 AM 54.0 °F 48.0 °F 80% 29.88 in - WSW 8.1 mph - N/A   Unknown
4:52 AM 54.0 °F 46.0 °F 75% 29.88 in - West 5.8 mph - N/A   Unknown
5:52 AM 51.1 °F 46.0 °F 83% 29.89 in - WSW 5.8 mph - N/A   Unknown
6:52 AM 55.9 °F 48.0 °F 75% 29.90 in - West 9.2 mph - N/A   Unknown
7:52 AM 61.0 °F 48.9 °F 64% 29.91 in - West 8.1 mph - N/A   Unknown
8:52 AM 66.0 °F 50.0 °F 56% 29.90 in - West 10.4 mph - N/A   Unknown
9:52 AM 68.0 °F 48.0 °F 49% 29.91 in - WNW 19.6 mph 23.0 mph N/A   Unknown
10:52 AM 70.0 °F 48.9 °F 47% 29.91 in - WNW 19.6 mph 25.3 mph N/A   Unknown
11:52 AM 71.1 °F 48.9 °F 45% 29.91 in - WNW 21.9 mph 32.2 mph N/A   Unknown
12:52 PM 73.0 °F 48.9 °F 42% 29.91 in - West 18.4 mph 31.1 mph N/A   Unknown
1:52 PM 73.9 °F 48.0 °F 40% 29.91 in - WNW 25.3 mph 33.4 mph N/A   Unknown
2:52 PM 75.0 °F 50.0 °F 41% 29.91 in - WNW 26.5 mph 39.1 mph N/A   Unknown
3:52 PM 73.9 °F 48.0 °F 40% 29.91 in - WNW 27.6 mph 34.5 mph N/A   Unknown
4:52 PM 73.9 °F 48.9 °F 41% 29.92 in - WNW 19.6 mph 38.0 mph N/A   Unknown
5:52 PM 73.0 °F 50.0 °F 44% 29.93 in - WNW 21.9 mph 32.2 mph N/A   Unknown
6:52 PM 73.0 °F 48.9 °F 42% 29.93 in - NW 23.0 mph 29.9 mph N/A   Unknown
7:52 PM 69.1 °F 50.0 °F 51% 29.93 in - NW 20.7 mph 27.6 mph N/A   Unknown
8:52 PM 68.0 °F 50.0 °F 52% 29.93 in - WNW 13.8 mph - N/A   Unknown
9:52 PM 64.0 °F 50.0 °F 60% 29.94 in - NW 10.4 mph - N/A   Unknown
10:52 PM 60.1 °F 52.0 °F 75% 29.97 in - WNW 8.1 mph - N/A   Unknown
11:52 PM 59.0 °F 52.0 °F 78% 29.98 in - WNW 8.1 mph - N/A   Unknown